• In Hungary
  • List of Countries
  • For 7 days
  • Water Temperature
  • Satellite Maps
  • Weather Map
  • News
  • Weather Widgets
  • user-avatar
    Login

    Hourly Weather Cambre

    Today, 24 June, Sunday

    Time Temperature Precipitation Wind Pressure Humidity
    00:00 +20°C° 0 mm 3 mps 759 mmHg 88%
    01:00 +20°C° 0 mm 3 mps 759 mmHg 89%
    02:00 +20°C° 0 mm 2 mps 759 mmHg 90%
    03:00 +20°C° 0 mm 2 mps 759 mmHg 88%
    04:00 +20°C° 0 mm 2 mps 759 mmHg 87%
    05:00 +21°C° 0 mm 2 mps 759 mmHg 85%
    06:00 +25°C° 0 mm 2 mps 759 mmHg 73%
    07:00 +28°C° 0 mm 2 mps 759 mmHg 62%
    08:00 +31°C° 0 mm 2 mps 759 mmHg 51%
    09:00 +34°C° 0 mm 2 mps 759 mmHg 46%
    10:00 +36°C° 0 mm 2 mps 759 mmHg 41%
    11:00 +38°C° 0 mm 2 mps 759 mmHg 36%
    12:00 +38°C° 0 mm 3 mps 759 mmHg 37%
    13:00 +37°C° 0 mm 3 mps 758 mmHg 38%
    14:00 +37°C° 0 mm 3 mps 758 mmHg 39%
    15:00 +35°C° 0 mm 3 mps 758 mmHg 45%
    16:00 +33°C° 0 mm 3 mps 758 mmHg 52%
    17:00 +31°C° 0 mm 2 mps 758 mmHg 59%
    18:00 +28°C° 0.2 mm 2 mps 759 mmHg 70%
    19:00 +25°C° 0.2 mm 2 mps 759 mmHg 81%
    20:00 +23°C° 0.2 mm 2 mps 759 mmHg 92%
    21:00 +21°C° 0.3 mm 2 mps 759 mmHg 93%
    22:00 +21°C° 0.3 mm 2 mps 759 mmHg 94%
    23:00 +21°C° 0.3 mm 1 mps 759 mmHg 95%

    Tomorrow, 25 June, Monday

    Time Temperature Precipitation Wind Pressure Humidity
    00:00 +21°C° 0.4 mm 1 mps 759 mmHg 96%
    01:00 +21°C° 0.4 mm 1 mps 759 mmHg 97%
    02:00 +21°C° 0.4 mm 1 mps 758 mmHg 97%
    03:00 +21°C° 0.7 mm 1 mps 758 mmHg 97%
    04:00 +21°C° 0.7 mm 1 mps 758 mmHg 97%
    05:00 +21°C° 0.7 mm 1 mps 758 mmHg 97%
    06:00 +23°C° 1 mm 1 mps 759 mmHg 90%
    07:00 +25°C° 1 mm 1 mps 759 mmHg 83%
    08:00 +27°C° 1 mm 1 mps 759 mmHg 76%
    09:00 +30°C° 0.4 mm 1 mps 759 mmHg 67%
    10:00 +32°C° 0.4 mm 2 mps 759 mmHg 58%
    11:00 +35°C° 0.4 mm 2 mps 759 mmHg 50%
    12:00 +34°C° 0.1 mm 2 mps 759 mmHg 51%
    13:00 +33°C° 0.1 mm 3 mps 759 mmHg 53%
    14:00 +33°C° 0.1 mm 3 mps 759 mmHg 55%
    15:00 +30°C° 0.6 mm 3 mps 759 mmHg 64%
    16:00 +27°C° 0.6 mm 2 mps 760 mmHg 74%
    17:00 +25°C° 0.6 mm 2 mps 760 mmHg 84%
    18:00 +24°C° 0.4 mm 2 mps 760 mmHg 89%
    19:00 +22°C° 0.4 mm 1 mps 761 mmHg 94%
    20:00 +21°C° 0.4 mm 1 mps 761 mmHg 98%
    21:00 +21°C° 0 mm 1 mps 761 mmHg 99%
    22:00 +20°C° 0 mm 1 mps 761 mmHg 99%
    23:00 +20°C° 0 mm 1 mps 761 mmHg 99%

    Day after tomorrow, 26 June, Tuesday

    Time Temperature Precipitation Wind Pressure Humidity
    00:00 +20°C° 0 mm 1 mps 761 mmHg 99%
    01:00 +20°C° 0 mm 1 mps 761 mmHg 99%
    02:00 +20°C° 0 mm 1 mps 761 mmHg 99%
    03:00 +20°C° 0 mm 1 mps 761 mmHg 98%
    04:00 +20°C° 0 mm 1 mps 760 mmHg 98%
    05:00 +20°C° 0 mm 1 mps 760 mmHg 97%
    06:00 +21°C° 0 mm 1 mps 761 mmHg 93%
    07:00 +22°C° 0 mm 1 mps 761 mmHg 89%
    08:00 +23°C° 0 mm 1 mps 761 mmHg 85%
    09:00 +24°C° 0 mm 1 mps 761 mmHg 77%
    10:00 +26°C° 0 mm 2 mps 761 mmHg 69%
    11:00 +28°C° 0 mm 2 mps 761 mmHg 61%
    12:00 +27°C° 0 mm 2 mps 761 mmHg 63%
    13:00 +27°C° 0 mm 2 mps 761 mmHg 65%
    14:00 +26°C° 0 mm 3 mps 761 mmHg 66%
    15:00 +26°C° 0 mm 2 mps 761 mmHg 67%
    16:00 +25°C° 0 mm 2 mps 761 mmHg 69%
    17:00 +25°C° 0 mm 2 mps 761 mmHg 70%
    18:00 +23°C° 0 mm 2 mps 761 mmHg 79%
    19:00 +21°C° 0 mm 1 mps 762 mmHg 87%
    20:00 +19°C° 0 mm 1 mps 762 mmHg 95%
    21:00 +19°C° 0 mm 1 mps 762 mmHg 96%
    22:00 +18°C° 0 mm 1 mps 762 mmHg 97%
    23:00 +18°C° 0 mm 1 mps 762 mmHg 97%

    27 June, Wednesday

    Time Temperature Precipitation Wind Pressure Humidity
    00:00 +16°C° 0 mm 1 mps 762 mmHg 97%
    01:00 +16°C° 0 mm 1 mps 761 mmHg 97%
    02:00 +16°C° 0 mm 1 mps 761 mmHg 97%
    03:00 +16°C° 0 mm 1 mps 761 mmHg 96%
    04:00 +16°C° 0 mm 1 mps 761 mmHg 95%
    05:00 +16°C° 0 mm 1 mps 761 mmHg 94%
    06:00 +20°C° 0 mm 1 mps 761 mmHg 83%
    07:00 +22°C° 0 mm 1 mps 761 mmHg 71%
    08:00 +25°C° 0 mm 1 mps 761 mmHg 60%
    09:00 +26°C° 0 mm 1 mps 761 mmHg 56%
    10:00 +27°C° 0 mm 2 mps 761 mmHg 53%
    11:00 +28°C° 0 mm 2 mps 761 mmHg 49%
    12:00 +28°C° 0 mm 2 mps 761 mmHg 50%
    13:00 +28°C° 0 mm 3 mps 761 mmHg 52%
    14:00 +28°C° 0 mm 3 mps 761 mmHg 53%
    15:00 +27°C° 0 mm 3 mps 761 mmHg 58%
    16:00 +26°C° 0 mm 2 mps 760 mmHg 63%
    17:00 +25°C° 0 mm 2 mps 760 mmHg 68%
    18:00 +23°C° 0 mm 2 mps 761 mmHg 77%
    19:00 +21°C° 0 mm 1 mps 761 mmHg 87%
    20:00 +19°C° 0 mm 1 mps 761 mmHg 97%
    21:00 +18°C° 0 mm 1 mps 761 mmHg 97%
    22:00 +18°C° 0 mm 1 mps 761 mmHg 98%
    23:00 +16°C° 0 mm 1 mps 761 mmHg 99%

    28 June, Thursday

    Time Temperature Precipitation Wind Pressure Humidity
    00:00 +16°C° 0 mm 1 mps 760 mmHg 99%
    01:00 +16°C° 0 mm 1 mps 760 mmHg 99%
    02:00 +16°C° 0 mm 1 mps 760 mmHg 99%
    03:00 +16°C° 0 mm 1 mps 760 mmHg 98%
    04:00 +16°C° 0 mm 1 mps 759 mmHg 96%
    05:00 +16°C° 0 mm 1 mps 759 mmHg 95%
    06:00 +19°C° 0 mm 2 mps 759 mmHg 85%
    07:00 +21°C° 0 mm 2 mps 759 mmHg 74%
    08:00 +24°C° 0 mm 2 mps 759 mmHg 64%
    09:00 +26°C° 0 mm 3 mps 758 mmHg 59%
    10:00 +28°C° 0 mm 3 mps 758 mmHg 55%
    11:00 +29°C° 0 mm 3 mps 758 mmHg 50%
    12:00 +29°C° 0 mm 3 mps 757 mmHg 51%
    13:00 +29°C° 0 mm 3 mps 757 mmHg 52%
    14:00 +29°C° 0 mm 4 mps 757 mmHg 53%
    15:00 +28°C° 0.1 mm 4 mps 757 mmHg 59%
    16:00 +27°C° 0.1 mm 4 mps 756 mmHg 65%
    17:00 +26°C° 0.1 mm 4 mps 756 mmHg 70%
    18:00 +23°C° 0.7 mm 4 mps 756 mmHg 79%
    19:00 +22°C° 0.7 mm 3 mps 757 mmHg 87%
    20:00 +20°C° 0.7 mm 3 mps 757 mmHg 95%
    21:00 +19°C° 0.3 mm 3 mps 757 mmHg 96%
    22:00 +19°C° 0.3 mm 3 mps 756 mmHg 97%
    23:00 +19°C° 0.3 mm 3 mps 756 mmHg 97%

    29 June, Friday

    Time Temperature Precipitation Wind Pressure Humidity
    00:00 +19°C° 0 mm 3 mps 756 mmHg 98%
    01:00 +19°C° 0 mm 3 mps 755 mmHg 98%
    02:00 +19°C° 0 mm 3 mps 755 mmHg 98%
    03:00 +19°C° 0.2 mm 3 mps 755 mmHg 98%
    04:00 +19°C° 0.2 mm 2 mps 755 mmHg 98%
    05:00 +19°C° 0.2 mm 2 mps 754 mmHg 98%
    06:00 +21°C° 0.1 mm 2 mps 755 mmHg 90%
    07:00 +24°C° 0.1 mm 2 mps 755 mmHg 82%
    08:00 +26°C° 0.1 mm 2 mps 755 mmHg 75%
    09:00 +28°C° 0 mm 2 mps 755 mmHg 66%
    10:00 +30°C° 0 mm 3 mps 755 mmHg 58%
    11:00 +33°C° 0 mm 3 mps 755 mmHg 50%
    12:00 +31°C° 0.7 mm 3 mps 754 mmHg 57%
    13:00 +30°C° 0.7 mm 3 mps 754 mmHg 63%
    14:00 +28°C° 0.7 mm 3 mps 754 mmHg 69%
    15:00 +27°C° 0.9 mm 3 mps 755 mmHg 73%
    16:00 +26°C° 0.9 mm 2 mps 755 mmHg 78%
    17:00 +25°C° 0.9 mm 2 mps 755 mmHg 82%
    18:00 +24°C° 1.6 mm 2 mps 755 mmHg 87%
    19:00 +22°C° 1.6 mm 1 mps 756 mmHg 93%
    20:00 +21°C° 1.6 mm 1 mps 756 mmHg 99%
    21:00 +20°C° 1.1 mm 1 mps 756 mmHg 99%
    22:00 +20°C° 1.1 mm 1 mps 757 mmHg 99%
    23:00 +18°C° 1.1 mm 0 mps 757 mmHg 99%
    Show more